Total_Precipitation_Accumulation
0.00 0.00 0.00 0.00 0.00 0.00 0.00 0.00 0.00 0.00 0.00 0.00 0.00 0.00 0.00 0.00 0.00 0.00 0.00 0.00 0.01 0.00 0.01 0.00 0.01 0.05 0.02 0.17 0.01 0.03 0.03 0.12 0.10 0.34 0.68 0.06 0.13 0.11 0.04 0.17 0.15 0.19 0.21 0.14 0.05 0.07 0.14 0.08 0.01 0.02 0.01 0.01 0.01 0.00 0.00 0.01 0.01 0.01 0.02 0.03 0.03 0.01 0.01 0.02 0.01 0.02 0.03 0.02 0.04 0.04 0.04 0.03 0.03 0.03 0.06 0.06 0.11 0.04 0.05 0.14 0.11 0.18 0.26 0.29 0.18 0.15 0.10 0.10 0.11 0.15 0.18 0.12 0.10 0.18 0.16 0.11 0.07
0.00 0.00 0.00 0.00 0.00 0.00 0.00 0.00 0.00 0.00 0.00 0.00 0.00 0.00 0.00 0.00 0.00 0.00 0.00 0.00 0.00 0.00 0.00 0.00 0.00 0.03 0.02 0.07 0.03 0.02 0.09 0.08 0.06 0.09 0.27 0.19 0.09 0.07 0.22 0.43 0.68 0.51 0.25 0.17 0.10 0.06 0.10 0.10 0.03 0.01 0.02 0.02 0.01 0.01 0.01 0.01 0.01 0.03 0.03 0.03 0.02 0.01 0.02 0.01 0.02 0.03 0.03 0.02 0.04 0.05 0.06 0.05 0.04 0.05 0.05 0.07 0.04 0.06 0.04 0.13 0.18 0.19 0.24 0.16 0.15 0.15 0.14 0.14 0.12 0.11 0.12 0.12 0.10 0.12 0.08 0.08 0.08
0.00 0.00 0.00 0.00 0.00 0.00 0.00 0.00 0.00 0.00 0.00 0.00 0.00 0.00 0.00 0.00 0.00 0.00 0.00 0.00 0.00 0.00 0.00 0.01 0.04 0.06 0.01 0.06 0.09 0.09 1.20 0.13 0.12 0.08 0.19 0.19 0.12 0.43 0.22 0.35 0.66 0.64 0.55 0.22 0.15 0.05 0.06 0.07 0.01 0.02 0.03 0.02 0.01 0.01 0.01 0.01 0.02 0.03 0.04 0.01 0.03 0.03 0.02 0.02 0.02 0.05 0.04 0.02 0.04 0.05 0.07 0.06 0.06 0.09 0.05 0.06 0.04 0.05 0.05 0.10 0.25 0.19 0.12 0.14 0.14 0.13 0.13 0.25 0.18 0.18 0.10 0.07 0.07 0.10 0.05 0.04 0.04
0.00 0.00 0.00 0.00 0.00 0.00 0.00 0.00 0.00 0.00 0.00 0.00 0.00 0.00 0.00 0.00 0.00 0.00 0.00 0.00 0.00 0.00 0.00 0.00 0.01 0.00 0.01 0.01 0.17 0.03 0.15 0.14 0.07 0.06 0.16 0.14 0.14 0.17 0.30 0.63 0.80 0.31 0.18 0.16 0.20 0.06 0.04 0.10 0.01 0.02 0.03 0.02 0.02 0.02 0.02 0.02 0.04 0.02 0.02 0.03 0.02 0.02 0.01 0.02 0.03 0.04 0.03 0.04 0.05 0.05 0.08 0.09 0.07 0.05 0.10 0.09 0.06 0.05 0.06 0.08 0.12 0.19 0.09 0.07 0.16 0.15 0.12 0.15 0.13 0.28 0.13 0.06 0.04 0.05 0.05 0.05 0.03
0.00 0.00 0.00 0.00 0.00 0.00 0.00 0.00 0.00 0.00 0.00 0.00 0.00 0.00 0.00 0.00 0.00 0.00 0.00 0.00 0.00 0.00 0.00 0.00 0.01 0.00 0.01 0.01 0.03 0.14 0.39 0.07 0.12 0.10 0.07 0.09 0.14 0.24 0.29 0.45 0.47 0.19 0.21 0.18 0.14 0.06 0.12 0.08 0.03 0.02 0.02 0.03 0.02 0.03 0.02 0.04 0.03 0.03 0.03 0.04 0.03 0.02 0.02 0.03 0.06 0.03 0.04 0.07 0.05 0.07 0.07 0.08 0.09 0.12 0.12 0.11 0.09 0.04 0.03 0.05 0.07 0.12 0.07 0.05 0.03 0.02 0.02 0.03 0.11 0.05 0.05 0.06 0.05 0.04 0.03 0.01 0.02
0.00 0.00 0.00 0.00 0.01 0.00 0.00 0.00 0.00 0.00 0.00 0.00 0.00 0.00 0.00 0.00 0.00 0.00 0.00 0.00 0.00 0.00 0.00 0.00 0.01 0.01 0.01 0.18 0.06 0.12 0.11 0.20 0.07 0.08 0.08 0.19 0.39 0.39 0.37 0.51 0.44 0.14 0.19 0.20 0.13 0.06 0.12 0.06 0.02 0.01 0.01 0.02 0.02 0.03 0.04 0.07 0.03 0.04 0.03 0.04 0.02 0.04 0.02 0.11 0.06 0.04 0.09 0.06 0.09 0.09 0.08 0.12 0.09 0.14 0.09 0.09 0.05 0.06 0.06 0.07 0.03 0.03 0.08 0.07 0.04 0.09 0.03 0.03 0.05 0.03 0.03 0.02 0.02 0.02 0.01 0.00 0.00
0.00 0.00 0.00 0.00 0.00 0.00 0.00 0.00 0.00 0.00 0.00 0.00 0.00 0.00 0.00 0.00 0.00 0.00 0.00 0.00 0.01 0.00 0.00 0.00 0.00 0.00 0.06 0.04 0.03 0.07 0.10 0.03 0.14 0.06 0.09 0.15 0.34 0.66 0.81 0.91 0.45 0.19 0.21 0.15 0.15 0.12 0.12 0.03 0.02 0.01 0.01 0.02 0.04 0.06 0.06 0.05 0.05 0.05 0.06 0.04 0.03 0.03 0.06 0.05 0.04 0.10 0.08 0.08 0.07 0.07 0.09 0.10 0.10 0.12 0.18 0.13 0.08 0.20 0.06 0.05 0.06 0.11 0.09 0.06 0.03 0.03 0.03 0.04 0.04 0.03 0.02 0.02 0.01 0.00 0.00 0.00 0.00
0.00 0.00 0.00 0.00 0.00 0.00 0.00 0.00 0.00 0.00 0.00 0.00 0.00 0.00 0.00 0.00 0.00 0.00 0.00 0.00 0.00 0.00 0.00 0.00 0.00 0.00 0.65 0.04 0.35 0.06 0.04 0.03 0.05 0.03 0.05 0.26 0.51 0.42 0.69 1.14 0.86 0.24 0.22 0.19 0.13 0.09 0.35 0.09 0.09 0.10 0.02 0.02 0.05 0.07 0.05 0.05 0.06 0.06 0.04 0.05 0.04 0.07 0.06 0.04 0.05 0.07 0.08 0.11 0.08 0.12 0.14 0.09 0.09 0.10 0.10 0.12 0.15 0.06 0.11 0.03 0.07 0.09 0.07 0.05 0.02 0.02 0.02 0.03 0.02 0.00 0.01 0.01 0.03 0.01 0.00 0.00 0.00
0.00 0.00 0.00 0.00 0.00 0.00 0.00 0.00 0.00 0.00 0.00 0.00 0.01 0.00 0.00 0.00 0.00 0.00 0.00 0.00 0.00 0.00 0.01 0.00 0.00 0.14 0.19 0.10 0.15 0.07 0.10 0.07 0.04 0.03 0.07 0.22 0.25 0.38 0.88 0.73 0.32 0.21 0.27 0.32 0.31 0.26 0.22 0.14 0.29 0.24 0.13 0.16 0.50 0.07 0.05 0.05 0.05 0.06 0.06 0.05 0.06 0.04 0.04 0.06 0.09 0.07 0.09 0.08 0.09 0.13 0.21 0.11 0.05 0.08 0.07 0.11 0.04 0.05 0.14 0.07 0.03 0.06 0.03 0.02 0.02 0.02 0.01 0.01 0.01 0.01 0.01 0.01 0.02 0.00 0.00 0.00 0.00
0.00 0.00 0.00 0.00 0.00 0.00 0.00 0.00 0.00 0.00 0.00 0.00 0.00 0.00 0.00 0.00 0.00 0.00 0.00 0.00 0.00 0.00 0.00 0.00 0.00 0.02 0.09 0.37 0.26 0.17 0.19 0.17 0.05 0.07 0.17 0.17 0.45 0.62 0.36 0.37 0.21 0.19 0.31 0.36 0.43 0.35 0.24 0.44 0.25 0.41 0.28 0.24 0.19 0.05 0.06 0.02 0.02 0.03 0.07 0.05 0.04 0.04 0.05 0.06 0.04 0.07 0.10 0.12 0.06 0.08 0.09 0.13 0.05 0.06 0.03 0.06 0.04 0.05 0.08 0.07 0.03 0.08 0.05 0.03 0.03 0.02 0.02 0.06 0.02 0.03 0.02 0.01 0.01 0.01 0.00 0.00 0.00
0.00 0.00 0.00 0.00 0.00 0.00 0.00 0.00 0.00 0.00 0.00 0.00 0.00 0.00 0.00 0.00 0.00 0.00 0.00 0.00 0.00 0.00 0.00 0.00 0.00 0.02 0.02 0.37 0.53 0.22 0.07 0.12 0.10 0.13 0.18 0.36 0.54 0.22 0.28 0.26 0.22 0.23 0.58 0.73 0.43 0.33 0.40 0.41 0.56 0.41 0.30 0.23 0.09 0.07 0.05 0.02 0.06 0.04 0.03 0.03 0.04 0.07 0.06 0.04 0.07 0.07 0.06 0.08 0.10 0.06 0.06 0.06 0.05 0.07 0.03 0.09 0.03 0.04 0.07 0.07 0.03 0.07 0.04 0.02 0.02 0.01 0.01 0.02 0.04 0.03 0.01 0.01 0.00 0.00 0.00 0.00 0.00
0.00 0.00 0.00 0.00 0.00 0.00 0.00 0.00 0.00 0.00 0.00 0.00 0.00 0.00 0.00 0.00 0.00 0.00 0.00 0.00 0.00 0.00 0.01 0.00 0.01 0.00 0.13 0.21 0.51 0.45 0.22 0.16 0.14 0.14 0.31 0.43 0.51 0.38 0.28 0.34 0.63 0.34 0.34 0.35 0.34 0.39 0.33 0.40 0.45 0.78 0.47 0.71 0.11 0.08 0.06 0.06 0.08 0.04 0.03 0.07 0.05 0.04 0.03 0.03 0.04 0.04 0.05 0.10 0.06 0.03 0.03 0.06 0.05 0.06 0.06 0.08 0.03 0.03 0.08 0.07 0.10 0.08 0.05 0.04 0.01 0.01 0.01 0.00 0.00 0.02 0.03 0.00 0.00 0.00 0.00 0.00 0.00
0.00 0.00 0.00 0.00 0.00 0.00 0.00 0.00 0.00 0.00 0.00 0.00 0.00 0.00 0.00 0.00 0.00 0.00 0.00 0.00 0.00 0.00 0.00 0.00 0.00 0.00 0.48 0.47 0.45 0.45 0.24 0.30 0.16 0.29 0.36 0.37 0.54 0.63 0.38 0.48 0.42 0.43 0.71 0.71 0.48 0.44 0.55 0.34 0.45 0.53 0.73 0.69 0.49 0.18 0.11 0.13 0.12 0.09 0.05 0.07 0.10 0.07 0.08 0.06 0.05 0.06 0.07 0.11 0.05 0.03 0.04 0.04 0.03 0.08 0.06 0.03 0.02 0.07 0.08 0.07 0.10 0.04 0.03 0.02 0.01 0.01 0.00 0.01 0.01 0.01 0.04 0.07 0.00 0.00 0.00 0.00 0.00
0.00 0.00 0.00 0.00 0.00 0.00 0.00 0.00 0.00 0.00 0.00 0.00 0.00 0.00 0.00 0.00 0.00 0.00 0.00 0.00 0.00 0.00 0.00 0.00 0.01 0.04 0.47 0.26 0.72 0.40 0.35 0.33 0.21 0.44 0.42 0.34 0.41 0.65 1.19 0.77 0.75 1.45 0.73 0.78 0.58 0.72 0.51 0.37 0.33 0.40 0.66 0.77 0.75 0.85 0.29 0.18 0.12 0.10 0.04 0.07 0.03 0.06 0.06 0.07 0.06 0.04 0.12 0.06 0.04 0.04 0.02 0.03 0.04 0.05 0.02 0.02 0.03 0.03 0.04 0.04 0.04 0.03 0.06 0.02 0.01 0.00 0.00 0.00 0.01 0.02 0.02 0.04 0.00 0.00 0.00 0.00 0.00
0.00 0.00 0.00 0.00 0.00 0.00 0.00 0.00 0.00 0.00 0.00 0.00 0.00 0.00 0.00 0.00 0.00 0.00 0.00 0.00 0.00 0.00 0.00 0.00 0.01 0.06 2.08 0.20 0.70 0.20 0.24 0.29 0.23 0.38 0.88 0.62 0.49 0.53 0.79 0.89 1.64 0.89 0.80 0.73 0.68 0.53 0.45 0.46 0.50 0.53 0.77 0.77 1.45 1.38 1.02 0.96 0.17 0.16 0.07 0.10 0.06 0.06 0.08 0.09 0.08 0.04 0.10 0.15 0.05 0.08 0.04 0.08 0.10 0.09 0.04 0.02 0.02 0.05 0.04 0.02 0.03 0.03 0.02 0.01 0.00 0.01 0.00 0.00 0.00 0.00 0.00 0.01 0.00 0.00 0.00 0.00 0.00
0.00 0.00 0.00 0.00 0.00 0.00 0.00 0.00 0.00 0.00 0.00 0.00 0.00 0.00 0.00 0.00 0.00 0.00 0.00 0.00 0.00 0.00 0.00 0.07 0.00 0.08 0.13 0.06 0.31 0.15 0.15 0.29 0.25 0.66 0.98 1.62 1.19 0.97 0.99 1.23 0.86 0.72 0.87 1.36 0.99 0.95 0.64 0.68 0.83 0.92 0.75 0.90 1.38 1.11 1.22 1.36 0.96 0.62 0.33 0.09 0.15 0.13 0.20 0.14 0.08 0.06 0.14 0.12 0.18 0.18 0.25 0.43 0.41 0.32 0.18 0.15 0.08 0.04 0.01 0.08 0.02 0.01 0.01 0.00 0.01 0.01 0.00 0.00 0.00 0.00 0.00 0.00 0.00 0.00 0.00 0.00 0.00
0.00 0.00 0.00 0.00 0.00 0.00 0.00 0.00 0.00 0.00 0.00 0.00 0.00 0.00 0.00 0.00 0.00 0.00 0.00 0.00 0.00 0.00 0.00 0.01 0.05 0.01 0.11 0.08 0.15 0.04 0.17 0.12 0.25 0.68 1.16 1.86 1.36 1.21 1.21 1.27 1.06 1.19 0.87 0.66 0.88 0.88 0.90 1.16 1.23 1.39 1.46 2.08 0.86 1.03 1.33 0.94 0.69 0.99 0.87 0.50 0.23 0.17 0.14 0.12 0.11 0.13 0.31 0.23 0.22 0.18 0.20 0.55 0.43 0.39 0.21 0.29 0.12 0.22 0.02 0.03 0.02 0.00 0.00 0.00 0.01 0.01 0.00 0.00 0.01 0.00 0.00 0.00 0.00 0.00 0.00 0.00 0.00
0.00 0.00 0.00 0.00 0.00 0.00 0.00 0.00 0.00 0.00 0.00 0.00 0.00 0.00 0.00 0.00 0.00 0.00 0.00 0.00 0.00 0.01 0.00 0.01 0.01 0.12 0.10 0.13 0.20 0.10 0.12 0.16 0.31 0.58 0.92 1.40 1.36 1.39 1.91 1.32 1.30 1.25 1.50 1.30 1.17 0.93 1.16 1.64 2.38 1.29 2.12 1.28 1.20 1.23 1.20 0.57 1.19 0.93 1.02 0.56 0.78 0.59 0.46 0.31 0.27 0.40 0.50 0.62 0.38 0.24 0.50 0.75 0.62 0.32 0.33 0.55 0.21 0.18 0.19 0.03 0.01 0.00 0.00 0.00 0.00 0.01 0.01 0.01 0.01 0.00 0.00 0.00 0.00 0.00 0.00 0.01 0.01
0.00 0.00 0.00 0.00 0.00 0.00 0.00 0.00 0.00 0.00 0.00 0.00 0.00 0.02 0.01 0.00 0.00 0.00 0.02 0.00 0.00 0.01 0.03 0.04 0.07 0.12 0.15 0.14 0.11 0.15 0.13 0.16 0.35 0.72 0.71 1.31 1.26 1.36 1.59 2.16 1.63 1.17 1.37 1.77 2.13 2.19 1.95 2.41 2.01 1.99 1.56 1.51 1.84 1.56 1.43 1.31 1.17 1.08 1.20 1.19 0.81 0.45 0.58 0.43 0.42 0.49 0.58 0.57 0.52 0.57 1.14 1.28 0.98 0.68 0.93 0.42 0.41 0.14 0.22 0.04 0.02 0.01 0.01 0.01 0.00 0.00 0.01 0.01 0.01 0.01 0.02 0.00 0.00 0.00 0.01 0.03 0.02
0.00 0.00 0.00 0.00 0.00 0.00 0.00 0.00 0.00 0.00 0.00 0.00 0.00 0.00 0.00 0.01 0.00 0.00 0.03 0.01 0.00 0.01 0.03 0.06 0.15 0.25 0.17 0.18 0.16 0.20 0.22 0.22 0.34 0.48 1.27 1.37 1.11 0.88 1.29 1.29 1.63 1.46 1.46 1.97 2.74 3.04 2.34 2.27 2.76 2.26 1.90 1.61 1.64 2.09 2.14 1.17 1.13 1.66 0.93 1.10 0.79 1.02 0.71 0.58 0.59 0.70 0.77 0.85 0.97 1.37 2.28 1.16 1.46 1.33 0.86 0.51 0.42 0.31 0.20 0.02 0.02 0.01 0.01 0.01 0.01 0.02 0.02 0.01 0.01 0.02 0.02 0.01 0.01 0.01 0.01 0.02 0.03
0.00 0.00 0.00 0.00 0.00 0.00 0.00 0.00 0.00 0.00 0.00 0.00 0.00 0.00 0.00 0.00 0.00 0.00 0.00 0.03 0.03 0.01 0.03 0.10 0.13 0.23 0.18 0.23 0.18 0.19 0.39 0.35 0.58 0.76 1.31 1.27 1.15 1.53 1.44 0.83 1.33 1.70 2.20 3.01 2.79 2.25 2.57 2.44 2.00 2.01 1.47 1.57 1.69 2.08 1.88 1.18 1.46 1.28 1.88 1.27 1.12 1.28 1.09 0.95 1.56 1.24 1.45 1.41 1.80 2.20 1.58 1.46 1.26 1.15 1.02 0.89 0.78 0.46 0.40 0.35 0.31 0.16 0.17 0.14 0.01 0.11 0.19 0.49 0.12 0.14 0.03 0.01 0.02 0.00 0.00 0.01 0.04
0.00 0.00 0.00 0.00 0.00 0.00 0.00 0.00 0.00 0.00 0.00 0.00 0.00 0.00 0.00 0.00 0.00 0.00 0.00 0.02 0.13 0.08 0.08 0.01 0.02 0.34 0.38 0.17 0.18 0.33 0.41 0.56 0.58 1.21 1.69 1.79 1.76 1.11 1.52 1.47 1.30 1.52 1.07 2.40 2.04 1.67 1.96 1.32 1.58 1.67 2.34 1.87 1.37 1.94 1.30 1.60 2.04 2.07 1.46 1.70 1.72 1.46 1.47 1.25 1.18 1.92 1.90 2.42 1.43 2.32 1.81 1.85 1.51 1.45 1.40 1.36 1.20 0.84 0.72 0.56 0.44 0.50 0.21 0.13 0.08 0.13 0.21 0.46 0.24 0.19 0.05 0.04 0.02 0.01 0.00 0.00 0.01
0.00 0.00 0.00 0.00 0.00 0.00 0.00 0.00 0.00 0.00 0.00 0.00 0.00 0.00 0.00 0.00 0.00 0.00 0.00 0.01 0.09 0.07 0.06 0.07 0.02 0.10 0.31 0.24 0.41 0.52 0.89 0.63 0.72 1.74 2.00 1.92 1.58 1.50 1.55 1.38 1.33 1.59 1.70 1.98 2.16 2.01 1.85 2.65 2.09 1.50 2.69 1.61 1.73 1.35 1.84 1.36 1.46 1.69 1.45 1.77 1.43 1.42 1.91 1.40 0.84 1.58 1.86 1.42 1.65 2.22 1.91 1.68 1.87 1.40 1.77 1.50 1.31 0.85 1.13 0.91 0.78 0.69 0.68 0.73 0.18 0.31 0.44 0.15 0.12 0.25 0.14 0.03 0.02 0.01 0.03 0.02 0.02
0.00 0.00 0.00 0.00 0.00 0.00 0.00 0.00 0.00 0.00 0.00 0.00 0.00 0.00 0.00 0.00 0.00 0.00 0.00 0.00 0.00 0.03 0.07 0.02 0.10 0.11 0.18 0.17 0.35 0.46 0.66 0.72 1.77 2.62 2.69 2.09 1.52 2.30 1.53 1.55 1.23 1.47 1.24 1.37 1.94 1.94 2.72 1.67 1.75 3.18 1.60 1.31 1.40 1.36 1.50 0.79 1.43 1.97 1.63 1.83 1.98 1.84 1.32 1.32 1.51 0.97 1.12 1.21 1.82 1.44 1.66 1.52 1.36 1.31 1.36 1.17 0.96 0.92 1.18 0.99 0.94 1.34 1.23 0.96 0.46 0.99 0.91 0.31 0.25 0.22 0.12 0.01 0.05 0.48 0.36 0.31 0.37
0.00 0.00 0.00 0.00 0.00 0.00 0.00 0.00 0.00 0.00 0.00 0.00 0.00 0.00 0.00 0.00 0.00 0.00 0.02 0.01 0.01 0.03 0.03 0.02 0.37 0.41 0.45 0.36 0.46 0.77 1.11 1.89 2.49 2.32 2.67 2.19 2.08 2.29 1.92 2.00 1.28 0.91 1.09 1.28 1.28 1.69 1.75 2.54 1.90 2.24 1.19 1.15 1.29 1.04 0.90 1.56 1.89 1.85 1.88 1.37 1.17 1.16 1.38 1.57 1.22 0.98 1.18 1.43 1.24 1.26 1.00 1.51 1.71 1.51 1.56 1.42 0.88 0.94 1.15 0.98 0.98 1.05 1.11 1.03 0.84 0.61 0.64 0.68 0.49 0.39 0.16 0.15 0.06 0.16 0.08 0.04 0.09
0.00 0.00 0.00 0.00 0.00 0.00 0.00 0.00 0.00 0.00 0.00 0.00 0.00 0.00 0.00 0.00 0.00 0.02 0.18 0.08 0.04 0.06 0.07 0.31 0.61 0.41 0.72 0.67 0.50 0.58 1.17 2.04 2.21 1.89 1.68 1.46 2.89 2.60 1.80 1.44 1.02 0.87 0.79 1.31 1.25 1.39 1.47 1.57 1.61 1.07 0.89 1.27 1.31 1.25 1.29 0.78 1.21 1.03 1.14 1.16 1.13 1.03 1.03 1.18 0.91 0.76 0.83 1.11 1.30 1.34 1.45 1.41 1.36 1.37 1.31 1.06 1.09 1.01 1.11 0.58 0.77 0.78 0.80 0.74 0.58 0.46 1.15 0.75 0.42 0.24 0.21 0.08 0.33 0.10 0.11 0.07 0.07
0.00 0.00 0.00 0.00 0.00 0.00 0.00 0.00 0.00 0.00 0.00 0.00 0.00 0.00 0.00 0.00 0.00 0.12 0.54 0.49 0.09 0.09 0.24 0.44 0.38 0.30 0.65 0.50 0.70 0.96 1.05 1.48 1.65 1.69 1.61 1.20 2.01 1.74 1.03 1.02 0.74 0.77 0.76 1.01 0.88 1.40 1.80 2.02 2.02 1.24 0.78 0.74 0.91 0.61 0.73 0.99 0.64 0.67 0.57 0.71 0.92 0.69 0.96 0.98 0.95 0.98 1.26 1.56 1.75 1.60 1.24 1.21 1.39 1.21 1.32 0.99 1.09 0.94 1.25 1.17 0.88 0.55 0.60 0.66 0.67 0.77 0.70 0.64 0.49 0.40 0.39 0.15 0.10 0.12 0.19 0.03 0.04
0.00 0.00 0.00 0.00 0.00 0.00 0.00 0.00 0.00 0.00 0.00 0.00 0.00 0.00 0.00 0.00 0.00 0.05 0.14 0.54 0.70 0.50 0.56 1.10 0.26 0.29 0.71 1.20 1.44 1.09 1.44 1.51 1.32 1.29 1.28 1.00 1.58 1.35 1.13 1.12 0.78 1.39 1.98 1.77 1.37 1.52 2.04 1.40 1.54 0.82 1.25 0.67 0.69 0.69 0.68 0.60 0.53 0.48 0.61 1.04 0.84 0.88 0.86 1.36 1.35 1.43 1.72 1.41 1.68 1.45 0.99 1.43 1.48 1.28 1.46 1.15 1.15 0.88 1.35 1.29 0.99 0.76 0.76 0.98 0.97 1.11 0.98 0.60 0.49 0.33 0.30 0.16 0.24 0.28 0.22 0.07 0.03
0.00 0.00 0.00 0.00 0.00 0.00 0.00 0.00 0.00 0.00 0.00 0.00 0.00 0.00 0.00 0.01 0.14 0.06 0.11 0.25 0.82 0.85 0.63 0.37 0.62 0.58 0.75 0.93 0.87 0.85 1.03 1.31 1.36 1.33 1.28 2.02 1.80 1.99 1.39 1.44 1.28 2.12 1.91 2.09 1.91 1.79 1.58 1.59 1.15 0.98 1.11 0.74 0.60 0.67 0.81 0.73 0.66 0.96 1.10 1.15 0.93 0.88 1.10 1.29 1.22 1.24 1.45 1.44 1.72 1.33 1.48 1.79 1.87 1.53 1.06 0.96 0.89 1.12 1.00 1.36 1.03 1.14 0.72 1.02 0.99 0.65 0.42 0.44 0.34 0.15 0.11 0.14 0.36 0.45 0.32 0.30 0.11
0.00 0.00 0.00 0.00 0.00 0.00 0.00 0.00 0.00 0.00 0.00 0.00 0.00 0.02 0.02 0.04 0.06 0.23 0.30 0.34 0.78 0.89 0.55 0.43 0.81 1.30 2.29 1.96 1.26 1.29 1.44 1.89 1.96 2.29 2.53 2.95 2.39 2.43 1.54 1.34 1.22 1.27 1.37 1.83 1.89 2.53 1.79 1.36 0.90 0.59 0.81 0.99 0.93 0.92 0.94 0.79 0.76 1.22 1.01 1.12 0.87 0.72 0.95 1.13 1.21 1.49 1.50 1.27 1.70 1.48 1.48 2.14 1.60 1.33 1.53 1.66 1.27 1.36 1.01 0.84 1.39 1.35 0.96 1.13 1.03 0.66 0.86 0.50 0.30 0.41 0.22 0.13 0.36 0.48 0.61 0.29 0.32
0.00 0.00 0.00 0.00 0.00 0.00 0.00 0.00 0.00 0.00 0.00 0.00 0.00 0.04 0.09 0.16 0.17 0.33 0.35 0.51 0.37 0.74 1.38 1.69 1.60 2.37 1.32 1.25 1.47 1.54 1.69 1.71 2.70 2.29 1.63 1.76 4.36 2.61 2.49 1.78 1.87 1.88 1.74 1.26 2.40 2.13 1.24 0.86 0.91 0.71 0.73 1.03 0.95 0.87 0.73 1.10 1.17 0.48 0.88 1.07 0.71 0.71 0.93 1.24 1.00 1.26 1.52 1.29 1.12 1.95 1.78 1.96 1.71 1.80 1.31 0.98 1.13 0.90 0.90 1.21 1.45 1.09 1.13 0.99 1.17 1.04 0.62 0.64 0.61 0.43 0.25 0.29 0.36 0.66 0.55 0.39 0.31
0.00 0.00 0.00 0.00 0.00 0.00 0.00 0.00 0.00 0.00 0.00 0.00 0.00 0.02 0.20 0.09 0.34 0.32 0.25 0.29 0.59 0.46 0.79 1.02 1.74 2.03 1.73 1.39 1.46 1.53 2.40 1.49 1.17 1.50 2.19 2.74 2.90 2.98 2.18 1.73 1.98 2.27 1.73 1.57 2.38 2.93 1.45 1.02 1.16 1.23 1.33 1.05 0.96 0.73 0.45 0.92 0.86 0.75 0.87 0.86 0.68 0.77 0.87 1.24 1.19 1.24 1.53 1.51 1.58 1.60 1.90 1.76 1.96 1.39 1.08 1.56 0.81 0.75 0.79 0.99 1.09 1.23 0.76 0.80 1.18 1.42 0.70 1.08 0.75 0.89 0.74 0.49 0.36 0.70 0.81 0.86 0.74
0.00 0.00 0.00 0.00 0.00 0.00 0.00 0.00 0.00 0.00 0.00 0.00 0.00 0.04 0.03 0.26 0.25 0.24 0.25 0.35 0.21 0.30 0.87 1.06 1.88 1.60 1.83 1.49 0.93 0.93 0.62 0.65 1.09 1.36 1.69 2.80 1.99 2.64 2.61 2.27 1.55 1.37 1.29 1.27 1.31 2.04 1.45 1.64 1.57 1.80 1.31 1.46 0.69 0.85 0.65 0.55 0.89 0.79 1.14 1.01 0.59 0.81 0.84 1.00 0.95 1.10 1.04 1.25 1.27 1.30 1.89 1.53 1.25 1.54 1.42 1.19 0.99 0.94 0.58 0.63 0.81 1.23 1.02 0.75 1.21 0.76 0.87 0.66 0.92 0.58 0.57 0.51 0.66 0.76 0.78 0.63 1.06
0.00 0.00 0.00 0.00 0.00 0.00 0.00 0.00 0.00 0.00 0.00 0.00 0.00 0.00 0.02 0.05 0.12 0.13 0.28 0.21 0.25 0.76 1.53 1.66 1.75 1.22 0.97 1.06 0.72 0.66 0.47 0.59 1.06 1.36 1.50 2.03 1.93 1.99 2.38 2.17 2.03 1.94 1.61 1.50 1.53 2.43 1.76 1.44 2.07 1.78 1.71 0.83 0.63 0.95 1.15 1.48 1.26 1.52 1.15 0.76 0.65 0.76 0.77 0.88 1.11 1.42 1.40 1.73 1.91 1.48 1.26 1.04 1.15 1.01 0.85 0.82 1.25 0.73 0.79 1.00 0.79 2.31 1.58 1.03 0.84 0.90 0.76 0.71 1.03 0.72 0.54 0.55 0.65 0.73 0.69 0.95 1.06
0.00 0.00 0.00 0.00 0.00 0.00 0.00 0.00 0.00 0.00 0.00 0.00 0.00 0.02 0.01 0.05 0.08 0.20 0.34 0.75 1.39 0.65 1.31 0.36 0.25 0.25 0.79 0.76 0.82 0.84 0.81 0.47 0.56 0.65 1.28 1.58 2.11 2.04 2.44 2.44 3.37 2.96 1.76 1.75 1.74 1.12 1.24 1.54 1.62 2.36 1.23 0.93 1.12 2.00 1.57 1.74 1.51 1.51 1.34 0.88 0.64 0.70 0.89 1.14 1.55 1.62 1.36 1.49 1.71 1.53 0.95 0.83 0.80 0.68 0.87 0.87 0.70 0.86 0.75 0.70 0.74 0.98 1.21 1.12 1.14 1.10 1.35 0.90 0.81 0.64 0.66 0.45 0.57 0.73 0.66 0.79 0.96
0.00 0.01 0.00 0.00 0.00 0.00 0.00 0.00 0.00 0.00 0.00 0.00 0.03 0.06 0.06 0.06 0.14 0.53 1.54 1.33 1.16 1.46 1.28 0.39 0.60 0.53 0.54 0.54 0.89 1.36 1.02 0.97 0.68 1.05 1.08 1.32 1.77 2.86 2.63 2.61 1.54 1.89 2.36 2.00 1.31 1.56 1.10 1.06 1.47 1.20 2.31 1.65 1.09 2.65 1.76 1.75 1.02 0.87 0.85 0.91 1.34 1.41 1.67 1.32 1.42 1.32 1.34 0.92 1.28 1.19 1.32 0.79 1.08 0.86 0.43 0.75 0.60 0.92 0.57 0.89 0.55 0.55 1.20 1.22 1.40 0.98 0.83 0.98 0.99 1.05 0.78 0.94 0.76 0.69 0.61 1.18 0.95
0.00 0.00 0.00 0.00 0.00 0.00 0.00 0.00 0.00 0.00 0.00 0.00 0.00 0.03 0.05 0.07 0.14 0.61 1.50 2.52 1.20 0.99 0.26 0.17 0.34 0.28 0.41 0.65 0.76 0.71 0.73 0.91 0.76 0.95 0.94 2.18 2.97 2.04 2.39 2.19 1.80 1.87 1.44 1.64 2.69 1.62 1.30 1.73 1.33 1.92 2.59 1.77 1.98 2.20 1.61 1.02 0.90 1.22 0.58 1.00 1.09 1.01 0.69 0.94 0.92 1.15 1.30 1.41 1.02 1.06 0.95 0.62 0.80 1.52 1.34 1.24 0.93 0.65 0.55 0.84 0.63 0.63 0.62 0.55 0.82 1.00 0.93 1.07 1.54 1.15 1.14 1.20 1.04 1.29 0.87 0.55 1.47
0.00 0.00 0.00 0.00 0.00 0.00 0.00 0.00 0.00 0.00 0.00 0.01 0.01 0.01 0.06 0.05 0.12 0.52 0.46 2.47 1.51 1.32 0.79 0.39 0.64 1.18 0.69 0.46 0.50 0.40 0.68 1.01 0.95 0.87 1.72 2.21 1.67 1.58 2.51 2.13 2.02 1.49 1.96 1.95 2.11 1.50 1.70 1.56 1.70 3.33 2.03 1.16 1.47 1.66 1.36 0.58 0.86 0.69 1.04 1.07 1.63 1.16 1.19 1.29 0.82 0.93 1.11 1.49 1.20 1.31 1.08 1.22 1.17 0.60 0.97 0.67 0.49 0.68 0.82 0.49 0.54 0.63 0.96 0.84 1.00 0.83 0.69 0.99 0.97 0.73 0.93 1.03 1.07 1.16 0.82 0.57 0.87
0.00 0.00 0.00 0.00 0.00 0.00 0.00 0.00 0.00 0.00 0.00 0.02 0.02 0.03 0.08 0.11 0.13 0.85 0.43 0.41 1.75 1.42 0.44 0.73 1.35 0.95 1.88 1.77 1.52 1.37 1.05 1.18 1.39 1.52 1.06 2.00 2.98 2.20 2.18 1.78 1.30 1.64 2.54 2.02 3.25 1.44 1.50 1.84 2.28 3.46 1.92 1.63 1.06 1.58 1.27 1.33 1.31 1.54 1.86 1.53 1.13 1.51 1.30 1.35 1.24 1.69 1.79 1.13 1.18 1.12 0.76 0.58 0.57 0.83 0.63 0.80 0.72 0.65 0.81 0.58 0.53 1.40 1.19 0.83 0.99 0.94 0.75 1.10 0.94 0.93 1.08 0.81 1.05 0.95 0.88 0.97 1.06
0.00 0.00 0.00 0.00 0.00 0.01 0.03 0.00 0.00 0.00 0.00 0.01 0.01 0.03 0.14 0.16 0.30 0.29 0.34 0.37 0.39 1.20 0.73 0.72 1.07 1.04 0.65 1.27 1.08 0.84 1.03 0.91 0.91 0.73 1.12 0.85 1.47 1.51 1.27 1.60 2.08 2.33 1.84 2.53 1.78 2.03 2.08 2.25 1.99 2.81 2.28 1.28 0.85 1.14 1.00 1.07 1.55 2.79 1.40 1.65 1.67 1.25 0.88 0.96 1.60 1.47 1.24 1.59 0.91 0.75 0.60 0.53 0.64 0.58 0.48 0.68 0.36 0.57 0.76 0.85 0.95 1.39 1.90 1.03 1.03 0.87 0.79 0.77 0.69 0.73 1.02 1.10 1.82 1.35 0.37 0.56 1.23
0.00 0.00 0.00 0.00 0.01 0.00 0.00 0.04 0.00 0.00 0.00 0.00 0.02 0.06 0.22 0.24 0.36 0.42 0.42 0.41 0.31 0.89 0.75 0.61 0.44 0.79 0.81 1.13 0.88 0.82 0.65 0.80 0.70 0.73 0.56 0.84 1.93 1.28 1.16 1.79 1.88 1.83 2.40 2.91 3.37 2.82 2.69 2.14 2.99 2.91 1.50 1.41 0.81 0.49 0.88 1.00 1.26 1.28 1.21 1.15 1.38 1.87 1.38 1.62 1.34 2.30 1.13 0.75 0.99 0.96 0.33 0.38 0.57 0.56 0.68 0.86 0.61 0.46 0.49 0.72 0.89 0.76 1.16 0.98 0.95 1.17 0.84 0.57 0.61 0.80 1.34 1.05 0.42 0.79 0.87 1.58 1.30
0.00 0.00 0.00 0.00 0.00 0.01 0.00 0.00 0.00 0.01 0.02 0.02 0.02 0.06 0.33 0.35 0.53 0.22 0.31 0.36 0.41 0.50 0.54 0.89 1.02 0.61 0.69 0.77 0.83 0.77 0.74 0.44 0.49 0.50 0.33 0.68 0.88 0.93 1.63 2.42 2.14 2.20 2.87 4.78 2.85 3.56 3.52 4.06 2.72 1.35 1.06 0.75 0.68 0.67 0.91 1.68 1.42 1.17 1.03 0.92 1.82 1.94 1.21 0.95 0.54 0.85 0.72 0.93 0.32 0.22 0.37 0.35 0.55 0.44 0.35 0.64 0.99 0.26 0.32 0.57 0.78 0.72 1.41 1.20 1.10 1.30 1.21 1.28 1.01 0.87 0.70 1.43 1.25 0.68 0.69 1.12 0.87
0.00 0.01 0.00 0.00 0.00 0.00 0.00 0.01 0.00 0.01 0.02 0.07 0.00 0.04 0.21 0.21 0.35 0.36 0.38 0.20 0.28 0.55 0.46 0.48 1.23 0.63 0.33 0.41 0.52 0.97 0.77 0.64 0.63 1.11 0.83 0.99 1.48 1.40 2.07 2.14 1.77 2.00 1.90 3.78 2.78 4.05 2.98 1.69 1.32 0.79 0.54 0.76 1.07 0.72 0.72 1.34 1.18 1.12 1.24 2.05 1.90 1.56 0.98 0.86 1.07 0.89 0.71 0.69 0.44 0.23 0.24 0.57 0.60 0.51 0.46 0.37 0.52 0.32 0.37 0.59 0.83 0.92 1.05 0.89 1.03 1.63 1.80 1.40 0.73 0.78 0.64 1.34 1.16 1.28 1.44 1.34 1.22
0.01 0.01 0.00 0.00 0.00 0.00 0.00 0.01 0.00 0.03 0.00 0.01 0.00 0.03 0.24 0.29 0.18 0.17 0.38 0.40 0.37 0.55 0.41 0.33 0.16 0.93 0.53 0.56 1.03 0.77 0.53 0.33 0.30 0.34 0.40 0.83 1.23 1.22 1.94 1.26 2.33 1.84 2.72 3.55 3.07 3.10 2.40 1.62 1.01 0.62 0.98 1.84 0.71 0.53 0.72 0.81 1.01 1.46 2.40 1.76 0.98 0.65 0.80 0.90 1.30 0.75 0.43 0.99 0.34 0.41 0.40 0.39 0.35 0.31 0.36 0.38 0.66 0.60 0.44 0.57 0.76 1.08 1.03 1.10 0.74 0.62 1.00 0.95 0.64 1.44 1.29 1.60 1.77 1.58 1.34 1.25 1.15
0.02 0.00 0.00 0.00 0.00 0.00 0.00 0.01 0.01 0.02 0.04 0.07 0.01 0.03 0.14 0.20 0.26 0.27 0.34 0.66 0.48 0.64 0.38 0.25 0.24 0.29 0.58 1.18 1.12 0.76 0.61 0.71 0.62 0.35 0.78 2.48 1.33 0.79 1.43 2.80 2.24 2.78 2.97 3.21 3.16 2.40 2.52 1.71 1.35 1.70 1.98 0.83 0.70 0.78 1.01 1.27 0.83 0.97 1.98 1.92 1.43 0.80 0.66 0.66 0.75 1.04 0.69 0.42 0.43 0.34 0.68 0.74 0.68 0.48 0.49 0.67 1.18 1.15 0.71 0.59 0.73 1.11 1.34 1.17 0.47 0.70 1.04 1.00 0.79 0.75 0.77 0.93 0.93 1.08 1.66 0.91 1.01
0.00 0.00 0.00 0.00 0.00 0.00 0.00 0.02 0.00 0.09 0.03 0.07 0.04 0.08 0.05 0.33 0.19 0.40 0.43 0.26 0.30 0.26 0.21 0.27 0.28 0.27 0.39 0.72 0.97 0.59 0.44 0.41 0.60 0.72 0.75 0.80 0.75 1.22 1.55 1.87 2.99 2.54 3.57 2.94 1.89 2.64 2.50 2.11 2.02 0.86 0.77 1.08 1.35 1.38 1.85 1.92 1.50 2.25 2.24 1.79 1.03 0.93 0.58 0.67 0.59 0.42 0.42 0.38 0.36 0.56 0.74 0.82 0.31 0.44 0.81 1.15 1.36 0.55 0.73 1.03 1.38 1.53 1.45 0.95 0.81 0.77 0.77 0.55 0.79 0.82 0.84 0.82 1.08 1.73 1.29 1.19 1.01
0.00 0.00 0.00 0.00 0.00 0.01 0.01 0.01 0.02 0.11 0.05 0.02 0.01 0.05 0.00 0.27 0.26 0.20 0.30 0.23 0.13 0.14 0.19 0.28 0.29 0.31 0.33 0.63 0.55 0.48 0.66 0.31 0.40 0.35 0.51 0.60 1.08 1.15 1.13 1.00 1.52 1.80 2.39 1.42 1.78 2.09 1.35 1.59 1.27 1.13 0.86 1.06 1.72 2.14 1.70 1.21 1.72 2.05 2.08 1.71 1.07 0.58 0.69 0.35 0.46 0.34 0.15 0.18 0.32 0.36 0.83 0.32 0.51 0.52 0.55 0.87 0.79 1.02 0.82 0.64 0.80 1.25 1.60 1.35 1.55 1.55 0.96 0.54 0.82 0.71 0.70 0.79 0.82 1.41 1.10 1.23 1.17
0.00 0.00 0.01 0.00 0.04 0.04 0.04 0.05 0.03 0.09 0.00 0.02 0.04 0.03 0.06 0.17 0.49 0.44 0.15 0.19 0.11 0.11 0.12 0.20 0.24 0.17 0.21 0.32 0.41 0.46 0.51 0.32 0.35 0.42 0.43 0.58 1.04 0.79 0.51 0.72 1.36 2.30 1.97 1.42 1.46 2.07 1.75 1.40 1.43 2.28 1.85 1.28 1.47 1.60 1.24 2.12 1.92 2.43 1.93 1.01 0.82 0.72 0.26 0.32 0.27 0.14 0.15 0.15 0.21 0.21 0.53 1.06 1.23 0.71 0.60 0.54 0.63 0.60 0.42 0.38 0.40 0.64 0.82 0.93 1.01 1.00 1.25 0.91 0.54 0.50 0.52 0.48 0.49 1.14 0.95 0.59 0.69
0.00 0.00 0.02 0.18 0.23 0.02 0.18 0.04 0.09 0.00 0.01 0.04 0.02 0.03 0.10 0.05 0.17 0.37 0.10 0.10 0.06 0.06 0.09 0.16 0.15 0.13 0.13 0.23 0.17 0.24 0.19 0.33 0.30 0.49 0.45 0.68 0.59 0.56 0.33 0.64 1.34 2.43 1.15 1.40 2.54 2.63 1.62 2.19 2.08 1.74 1.10 1.02 1.03 2.30 2.35 2.29 1.64 1.63 1.40 0.75 0.53 0.35 0.33 0.15 0.15 0.15 0.15 0.19 0.22 0.29 0.48 0.66 0.99 0.75 0.26 0.38 0.72 0.79 0.76 0.68 0.56 0.92 0.65 0.70 0.65 0.67 1.35 0.61 0.32 0.39 0.30 0.23 0.44 0.50 0.60 0.51 0.54
0.01 0.03 0.11 0.08 0.16 0.09 0.03 0.14 0.06 0.09 0.02 0.03 0.03 0.08 0.10 0.44 0.41 0.27 0.18 0.14 0.11 0.07 0.11 0.09 0.11 0.16 0.17 0.20 0.16 0.23 0.20 0.23 0.42 0.54 0.48 0.87 0.72 0.67 0.47 0.63 1.00 1.40 1.33 1.70 2.54 2.58 2.23 2.10 1.73 1.29 1.04 1.04 1.93 2.73 2.50 2.36 2.16 2.41 1.19 0.91 0.55 0.37 0.37 0.25 0.49 0.15 0.18 0.23 0.46 0.60 0.38 1.01 0.92 0.46 0.57 0.54 0.82 0.85 0.80 0.62 0.37 0.32 0.34 0.65 0.53 1.19 1.20 0.48 0.26 0.33 0.39 0.40 0.36 0.29 0.52 0.50 0.57
0.01 0.00 0.02 0.09 0.17 0.12 0.05 0.13 0.12 0.04 0.15 0.08 0.04 0.03 0.13 0.16 1.93 0.15 0.12 0.11 0.02 0.04 0.11 0.07 0.10 0.17 0.14 0.21 0.11 0.19 0.49 0.32 0.22 0.59 0.38 0.83 1.42 1.05 1.08 0.95 1.23 1.51 1.30 2.31 2.42 1.64 2.40 1.55 2.00 1.45 2.06 1.51 1.90 2.62 2.22 3.08 1.81 1.04 0.74 0.84 0.76 0.42 0.47 0.56 0.43 0.26 0.35 0.44 0.48 0.59 0.70 0.72 0.54 0.54 0.92 1.20 1.02 0.75 0.68 0.63 0.41 0.27 0.23 1.10 0.39 0.38 0.87 0.41 0.39 0.30 0.67 0.68 0.90 0.69 0.82 0.94 0.49
0.01 0.02 0.05 0.05 0.05 0.05 0.11 0.28 0.07 0.16 0.11 0.04 0.12 0.10 0.37 0.81 1.58 0.47 0.16 0.06 0.06 0.06 0.08 0.07 0.17 0.15 0.13 0.22 0.30 0.27 0.44 0.59 0.62 0.76 1.33 1.19 1.13 0.97 0.87 1.25 1.67 1.60 2.31 1.68 1.61 1.28 2.03 1.70 2.31 2.61 2.32 3.25 2.98 2.01 2.53 2.91 0.92 0.49 0.60 0.58 0.49 0.35 0.29 0.35 0.36 0.29 0.20 0.25 0.31 0.86 0.98 0.92 1.28 0.90 1.03 1.16 0.73 0.65 0.51 0.45 0.39 0.34 0.52 0.84 0.41 0.31 0.38 0.51 0.55 0.47 0.52 0.61 0.70 0.55 0.61 0.51 0.63
0.08 0.01 0.07 0.01 0.02 0.03 0.05 0.01 0.03 0.05 0.02 0.07 0.02 0.14 0.52 0.41 1.34 0.43 0.49 0.18 0.12 0.08 0.11 0.10 0.10 0.10 0.21 0.30 0.26 0.38 0.52 1.06 1.50 1.69 1.46 0.99 0.92 1.33 1.07 0.95 0.68 0.43 0.81 1.08 1.45 1.62 2.72 2.27 1.25 1.44 2.40 4.98 3.49 4.07 3.79 0.83 1.01 0.30 0.31 0.44 0.36 0.48 0.28 0.20 0.25 0.19 0.23 0.50 0.53 0.49 0.59 1.01 1.58 1.21 0.92 1.14 0.81 0.90 0.53 0.44 0.41 0.39 0.37 0.55 0.46 0.43 0.47 0.39 0.62 0.39 0.50 0.54 0.44 0.70 0.55 0.51 0.34
0.00 0.03 0.05 0.01 0.02 0.13 0.07 0.17 0.16 0.05 0.10 0.11 0.03 0.09 0.49 0.23 0.78 0.90 0.51 0.24 0.28 0.20 0.15 0.08 0.17 0.23 0.32 0.51 0.80 0.93 1.05 1.46 1.25 1.55 1.84 1.44 1.15 0.82 0.56 0.59 0.53 0.56 0.58 1.62 1.60 2.25 1.56 1.26 1.34 3.08 4.00 5.59 4.67 3.52 2.15 1.69 0.78 0.68 0.87 0.77 0.73 0.74 0.50 0.52 0.46 0.23 0.30 0.39 0.51 0.94 0.59 0.85 1.29 1.12 0.98 0.76 0.80 0.54 0.42 0.34 0.34 0.40 0.48 0.67 0.54 0.61 0.63 0.76 0.82 0.57 0.62 0.79 0.78 0.97 0.70 0.63 0.52
0.01 0.06 0.05 0.02 0.29 0.16 0.06 0.05 0.20 0.08 0.05 0.12 0.11 0.27 0.18 0.17 0.82 0.66 0.58 0.24 0.46 0.53 0.40 0.34 0.26 0.41 0.80 0.60 0.81 1.15 1.62 1.69 1.90 1.83 1.61 1.13 0.75 0.78 0.73 0.55 0.86 0.82 1.23 1.08 0.93 1.02 0.83 0.74 1.75 2.35 2.78 2.57 2.92 3.10 2.33 1.77 1.23 1.26 1.02 1.36 0.79 0.51 0.45 0.39 0.46 0.27 0.50 0.58 0.48 1.02 1.17 1.56 1.23 0.90 0.93 0.64 0.50 0.43 0.44 0.46 0.48 0.47 0.38 0.41 0.47 0.64 0.63 0.79 0.95 0.77 0.89 1.07 0.72 0.62 0.61 0.65 0.69
0.01 0.00 0.04 0.02 0.05 0.18 0.20 0.12 0.55 0.31 0.21 0.07 0.21 0.19 0.27 0.55 0.60 0.19 0.28 0.25 0.27 0.26 0.29 0.42 0.74 0.67 0.96 1.08 1.12 1.20 1.17 1.13 1.19 1.08 1.90 1.69 1.02 0.79 0.75 0.70 1.05 0.83 1.12 0.83 0.76 0.86 1.09 0.86 1.36 2.58 3.07 3.04 3.32 2.48 2.02 1.99 1.66 1.04 0.90 0.58 0.56 0.43 0.19 0.57 0.69 0.65 0.16 0.63 0.63 0.94 0.88 0.92 1.05 0.74 0.67 0.58 0.50 0.50 0.63 0.48 0.41 0.33 0.55 0.55 0.42 0.37 0.75 0.72 0.63 0.54 0.83 0.58 0.39 0.53 0.82 0.53 0.55
0.05 0.03 0.01 0.01 0.03 0.07 0.05 0.29 0.07 0.16 0.21 0.27 0.22 0.24 0.61 0.61 0.11 0.22 0.24 0.21 0.35 0.34 0.27 0.30 0.54 0.87 0.55 0.88 1.18 1.25 1.15 1.07 1.01 1.30 1.73 1.80 1.02 0.59 0.73 0.83 0.74 0.66 0.87 0.62 0.97 0.71 0.60 0.39 0.98 1.85 2.27 1.66 1.82 2.78 1.78 1.51 1.18 0.96 0.41 0.37 0.27 0.28 0.18 0.15 0.68 0.95 1.07 1.56 1.27 0.80 0.70 0.96 0.75 0.62 0.57 0.50 0.44 0.47 0.54 0.53 0.74 0.47 0.74 0.57 0.57 0.50 0.57 0.49 0.54 0.53 0.43 0.47 0.50 0.49 0.54 0.83 0.63
0.03 0.02 0.05 0.02 0.08 0.17 0.16 0.26 0.01 0.10 0.12 0.19 0.19 0.26 0.46 0.67 0.21 0.29 0.53 0.65 0.40 0.55 0.40 0.43 0.77 0.28 0.53 0.62 0.89 0.56 0.72 0.88 1.33 1.53 1.22 1.58 1.79 2.22 1.71 1.12 1.44 1.92 2.02 1.55 0.83 0.38 0.36 0.38 0.82 0.87 0.56 0.76 0.55 0.63 0.88 0.99 0.93 0.91 0.24 0.43 0.57 0.41 0.57 0.27 0.49 1.12 1.70 0.85 0.31 0.38 0.38 0.44 0.44 0.47 0.40 0.43 0.43 0.46 0.39 0.40 0.36 0.45 0.22 0.31 0.34 0.45 0.35 0.58 0.36 0.51 0.62 0.27 0.53 0.28 0.68 0.79 0.52